Howell, MI

12:43 PM EST on December 09, 2016 (GMT -0500)
Livingston County

Weather History for KOZW - January, 2013

Change the Weather History Date:

Monday, January 21, 2013

  Actual Average Record
Temperature  
Mean Temperature 10 °F -  
Max Temperature 16 °F 28 °F 46 °F (1999)
Min Temperature 3 °F 14 °F -7 °F (2014)
Degree Days  
Heating Degree Days 56    
Moisture  
Dew Point 2 °F    
Average Humidity 65    
Maximum Humidity 82    
Minimum Humidity 51    
Precipitation  
Precipitation 0.00 in - - ()
Sea Level Pressure  
Sea Level Pressure 30.00 in    
Wind  
Wind Speed 7 mph (West)    
Max Wind Speed 18 mph    
Max Gust Speed 26 mph    
Visibility 7 miles    
Events Snow    
Averages and records for this station are not official NWS values.
T = Trace of Precipitation, MM = Missing Value Source: NWS Daily Summary

Daily Weather History Graph

Daily Weather History Graph

Search for Another Location

Airport or City:

Trip Planner

Search our weather history database for the weather conditions in past years. The results will help you decide how hot, cold, wet, or windy it might be!

Date:

Astronomy

Jan. 21, 2013 Rise Set
Actual Time 7:59 AM EST 5:35 PM EST
Civil Twilight 7:28 AM EST 6:06 PM EST
Nautical Twilight 6:54 AM EST 6:40 PM EST
Astronomical Twilight 6:20 AM EST 7:14 PM EST
Moon 1:14 PM EST (1/21) 3:27 AM EST (1/21)
Length of Visible Light 10h 37m
Length of Day
9h 35m
Waxing Gibbous, 75% of the Moon is Illuminated
Jan 21
Waxing Gibbous
Jan 26
Full
Feb 3
Last Quarter
Feb 10
New
Feb 17
First Quarter

Hourly Weather History & Observations

Time (EST) Temp. Windchill Dew Point Humidity Pressure Visibility Wind Dir Wind Speed Gust Speed Precip Events Conditions
12:15 AM 15.8 °F - 2.3 °F 55% 30.10 in 10.0 mi Calm Calm - N/A   Overcast
12:34 AM 15.8 °F 10.2 °F 2.8 °F 57% 30.10 in 10.0 mi NW 3.5 mph - N/A   Overcast
1:14 AM 15.6 °F - 3.0 °F 58% 30.07 in 10.0 mi Calm Calm - N/A   Overcast
1:34 AM 15.4 °F - 3.2 °F 59% 30.06 in 10.0 mi Calm Calm - N/A   Overcast
2:35 AM 15.1 °F - 4.3 °F 62% 30.05 in 10.0 mi Calm Calm - N/A   Overcast
2:54 AM 15.3 °F - 5.0 °F 64% 30.05 in 10.0 mi Calm Calm - N/A   Overcast
3:14 AM 15.3 °F 7.9 °F 5.9 °F 67% 30.05 in 7.0 mi SSW 4.6 mph - N/A Snow Light Snow
3:35 AM 15.1 °F 9.4 °F 6.6 °F 69% 30.04 in 5.0 mi South 3.5 mph - N/A Snow Light Snow
3:54 AM 15.1 °F 9.4 °F 7.3 °F 71% 30.03 in 4.0 mi SSW 3.5 mph - N/A Snow Light Snow
4:14 AM 15.1 °F 7.7 °F 7.9 °F 73% 30.02 in 4.0 mi South 4.6 mph - N/A Snow Light Snow
4:35 AM 14.9 °F 7.5 °F 8.6 °F 76% 30.00 in 3.0 mi South 4.6 mph - N/A Snow Light Snow
4:54 AM 15.1 °F 7.7 °F 9.3 °F 78% 30.00 in 4.0 mi South 4.6 mph - N/A Snow Light Snow
5:35 AM 15.6 °F 10.0 °F 10.4 °F 80% 29.98 in 5.0 mi SSW 3.5 mph - N/A Snow Light Snow
5:54 AM 15.8 °F 8.6 °F 10.8 °F 80% 29.98 in 4.0 mi SW 4.6 mph - N/A Snow Light Snow
6:15 AM 16.3 °F 7.8 °F 11.3 °F 81% 29.97 in 1.8 mi SW 5.8 mph - N/A Snow Light Snow
6:35 AM 16.3 °F 6.7 °F 11.3 °F 81% 29.97 in 2.0 mi WSW 6.9 mph - N/A Snow Light Snow
6:54 AM 15.8 °F 6.1 °F 11.1 °F 82% 29.96 in 1.5 mi WSW 6.9 mph - N/A Snow Light Snow
7:15 AM 16.2 °F 5.5 °F 11.5 °F 82% 29.96 in 1.5 mi West 8.1 mph - N/A Snow Light Snow
7:35 AM 16.5 °F 5.1 °F 11.3 °F 80% 29.97 in 0.8 mi NW 9.2 mph - N/A Snow Snow
7:54 AM 14.9 °F 3.1 °F 9.1 °F 78% 29.97 in 3.0 mi NW 9.2 mph - N/A Snow Light Snow
8:15 AM 14.5 °F 2.7 °F 8.6 °F 77% 29.96 in 2.0 mi WNW 9.2 mph - N/A Snow Light Snow
8:35 AM 13.5 °F 3.3 °F 7.7 °F 78% 29.96 in 5.0 mi WNW 6.9 mph - N/A   Haze
8:54 AM 14.0 °F 3.9 °F 7.7 °F 76% 29.96 in 10.0 mi West 6.9 mph - N/A   Overcast
9:15 AM 13.6 °F 3.5 °F 7.2 °F 75% 29.96 in 5.0 mi WNW 6.9 mph - N/A   Haze
9:34 AM 14.4 °F 2.4 °F 7.2 °F 73% 29.96 in 3.0 mi NW 9.2 mph - N/A Snow Light Snow
9:54 AM 13.6 °F 3.5 °F 5.5 °F 70% 29.97 in 7.0 mi NW 6.9 mph - N/A   Mostly Cloudy
10:15 AM 15.3 °F 3.5 °F 7.2 °F 70% 29.98 in 3.0 mi WNW 9.2 mph - N/A   Haze
10:34 AM 15.3 °F 3.5 °F 6.6 °F 69% 29.98 in 4.0 mi NW 9.2 mph 16.1 mph N/A   Haze
10:54 AM 14.9 °F 0.9 °F 5.0 °F 65% 29.96 in 7.0 mi WNW 12.7 mph 18.4 mph N/A   Overcast
11:14 AM 15.4 °F 3.0 °F 4.6 °F 62% 29.96 in 4.0 mi NW 10.4 mph - N/A   Haze
11:34 AM 15.4 °F 2.3 °F 4.1 °F 61% 29.96 in 10.0 mi WNW 11.5 mph 16.1 mph N/A   Mostly Cloudy
11:55 AM 15.1 °F 1.8 °F 4.6 °F 63% 29.95 in 3.0 mi NW 11.5 mph - N/A   Haze
12:14 PM 14.7 °F 2.1 °F 4.1 °F 63% 29.94 in 5.0 mi WNW 10.4 mph 16.1 mph N/A   Haze
12:34 PM 14.5 °F -0.2 °F 4.1 °F 63% 29.93 in 7.0 mi WNW 13.8 mph 20.7 mph N/A   Overcast
12:55 PM 14.0 °F -0.2 °F 1.6 °F 58% 29.93 in 10.0 mi WNW 12.7 mph 20.7 mph N/A   Overcast
1:14 PM 14.0 °F -2.0 °F 1.8 °F 58% 29.93 in 7.0 mi WNW 16.1 mph 21.9 mph N/A   Overcast
1:34 PM 14.7 °F 1.4 °F 4.5 °F 64% 29.93 in 3.0 mi WNW 11.5 mph 19.6 mph N/A Snow Light Snow
1:55 PM 14.7 °F -1.1 °F 0.3 °F 53% 29.93 in 10.0 mi NW 16.1 mph - N/A   Overcast
2:14 PM 14.2 °F -1.2 °F -0.8 °F 52% 29.93 in 10.0 mi West 15.0 mph 23.0 mph N/A   Overcast
2:35 PM 16.7 °F 2.0 °F 2.8 °F 55% 29.93 in 10.0 mi WNW 15.0 mph 20.7 mph N/A   Overcast
2:55 PM 13.8 °F -2.7 °F 0.3 °F 55% 29.93 in 10.0 mi WNW 17.3 mph 23.0 mph N/A   Overcast
3:14 PM 13.5 °F -1.5 °F 1.8 °F 60% 29.95 in 4.0 mi NW 13.8 mph 18.4 mph N/A Snow Light Snow
3:35 PM 12.9 °F -0.9 °F 1.9 °F 62% 29.95 in 10.0 mi West 11.5 mph 24.2 mph N/A   Overcast
3:55 PM 13.5 °F -2.7 °F -1.5 °F 51% 29.96 in 10.0 mi West 16.1 mph 24.2 mph N/A   Overcast
4:14 PM 12.6 °F -3.8 °F 1.0 °F 60% 29.97 in 5.0 mi West 16.1 mph 21.9 mph N/A Snow Light Snow
4:35 PM 12.6 °F -4.9 °F -0.8 °F 55% 29.97 in 10.0 mi West 18.4 mph 23.0 mph N/A   Overcast
4:54 PM 10.9 °F -5.9 °F 0.1 °F 62% 29.98 in 3.0 mi WNW 16.1 mph - N/A Snow Light Snow
5:15 PM 10.4 °F -6.0 °F -0.6 °F 61% 29.99 in 7.0 mi WNW 15.0 mph 19.6 mph N/A   Overcast
5:35 PM 10.0 °F -5.9 °F 1.4 °F 68% 29.99 in 2.5 mi West 13.8 mph 17.3 mph N/A Snow Light Snow
5:54 PM 9.1 °F -6.4 °F -2.2 °F 60% 30.00 in 10.0 mi West 12.7 mph 19.6 mph N/A   Scattered Clouds
6:15 PM 9.0 °F -8.5 °F -3.6 °F 57% 30.00 in 7.0 mi West 16.1 mph 26.5 mph N/A   Mostly Cloudy
6:35 PM 7.9 °F -8.0 °F -5.1 °F 56% 30.01 in 10.0 mi West 12.7 mph 19.6 mph N/A   Scattered Clouds
6:54 PM 7.5 °F -6.9 °F -5.1 °F 56% 30.01 in 10.0 mi West 10.4 mph - N/A   Clear
7:15 PM 7.3 °F -5.2 °F -4.9 °F 57% 30.02 in 10.0 mi West 8.1 mph - N/A   Scattered Clouds
7:54 PM 6.1 °F -9.5 °F -3.1 °F 66% 30.03 in 10.0 mi WNW 11.5 mph - N/A   Scattered Clouds
8:15 PM 5.9 °F -11.2 °F -3.5 °F 65% 30.03 in 10.0 mi WNW 13.8 mph - N/A   Scattered Clouds
8:34 PM 5.9 °F -9.7 °F -5.8 °F 59% 30.03 in 10.0 mi WNW 11.5 mph 20.7 mph N/A   Scattered Clouds
8:55 PM 5.4 °F -11.8 °F -6.5 °F 58% 30.04 in 10.0 mi West 13.8 mph 17.3 mph N/A   Clear
9:15 PM 5.0 °F -11.6 °F -6.7 °F 59% 30.04 in 10.0 mi WNW 12.7 mph 17.3 mph N/A   Clear
9:34 PM 5.0 °F -10.8 °F -7.4 °F 57% 30.05 in 10.0 mi West 11.5 mph 17.3 mph N/A   Clear
9:55 PM 4.8 °F -11.1 °F -7.1 °F 58% 30.05 in 10.0 mi West 11.5 mph 17.3 mph N/A   Scattered Clouds
10:15 PM 4.5 °F -11.5 °F -6.7 °F 60% 30.05 in 10.0 mi WNW 11.5 mph - N/A   Mostly Cloudy
10:34 PM 4.5 °F -11.5 °F -6.7 °F 60% 30.05 in 10.0 mi West 11.5 mph - N/A   Overcast
10:55 PM 4.1 °F -10.2 °F -7.4 °F 59% 30.06 in 10.0 mi WNW 9.2 mph 16.1 mph N/A   Mostly Cloudy
11:15 PM 3.7 °F -9.6 °F -7.6 °F 59% 30.06 in 10.0 mi WNW 8.1 mph - N/A   Clear
11:34 PM 3.4 °F -8.9 °F -7.6 °F 60% 30.07 in 10.0 mi West 6.9 mph - N/A   Clear
11:55 PM 3.2 °F -12.2 °F -7.6 °F 61% 30.07 in 10.0 mi WNW 10.4 mph 16.1 mph N/A   Clear